Owensboro, KY

3:22 PM CST on December 03, 2016 (GMT -0600)
Owensboro-Daviess County

Weather History for KOWB - June, 2013

Change the Weather History Date:

Sunday, June 30, 2013

  Actual Average Record
Temperature  
Mean Temperature 70 °F -  
Max Temperature 77 °F 89 °F 104 °F (2012)
Min Temperature 64 °F 67 °F 50 °F (1940)
Cooling Degree Days 6    
Growing Degree Days 20 (Base 50)    
Moisture  
Dew Point 66 °F    
Average Humidity 90    
Maximum Humidity 100    
Minimum Humidity 71    
Precipitation  
Precipitation 0.00 in - - ()
Sea Level Pressure  
Sea Level Pressure 29.75 in    
Wind  
Wind Speed 5 mph (WNW)    
Max Wind Speed 9 mph    
Max Gust Speed -    
Visibility 8 miles    
Events Rain , Thunderstorm    
Averages and records for this station are not official NWS values.
T = Trace of Precipitation, MM = Missing Value Source: NWS Daily Summary

Daily Weather History Graph

Daily Weather History Graph

Search for Another Location

Airport or City:

Trip Planner

Search our weather history database for the weather conditions in past years. The results will help you decide how hot, cold, wet, or windy it might be!

Date:

Astronomy

Jun. 30, 2013 Rise Set
Actual Time 5:30 AM CDT 8:14 PM CDT
Civil Twilight 4:59 AM CDT 8:45 PM CDT
Nautical Twilight 4:20 AM CDT 9:24 PM CDT
Astronomical Twilight 3:35 AM CDT 10:08 PM CDT
Moon 12:23 AM CDT (6/30) 1:33 PM CDT (6/30)
Length of Visible Light 15h 46m
Length of Day
14h 44m
Last Quarter, 45% of the Moon is Illuminated
Jun 30
Last Quarter
Jul 8
New
Jul 15
First Quarter
Jul 22
Full
Jul 29
Last Quarter

Hourly Weather History & Observations

Time (CDT) Temp. Dew Point Humidity Pressure Visibility Wind Dir Wind Speed Gust Speed Precip Events Conditions
12:56 AM 64.9 °F 64.9 °F 100% 29.68 in 10.0 mi West 6.9 mph - N/A   Clear
1:56 AM 64.9 °F 64.9 °F 100% 29.69 in 9.0 mi West 4.6 mph - N/A   Scattered Clouds
2:16 AM 64.4 °F 64.4 °F 100% 29.70 in 7.0 mi West 3.5 mph - N/A   Mostly Cloudy
2:33 AM 64.4 °F 64.4 °F 100% 29.70 in 7.0 mi West 5.8 mph - N/A   Overcast
2:56 AM 65.8 °F 65.8 °F 100% 29.69 in 7.0 mi Calm Calm - N/A   Overcast
3:24 AM 66.2 °F 66.2 °F 100% 29.69 in 6.0 mi WSW 4.6 mph - N/A   Overcast
3:56 AM 65.8 °F 65.8 °F 100% 29.68 in 6.0 mi WSW 3.5 mph - N/A   Overcast
4:56 AM 65.8 °F 65.8 °F 100% 29.70 in 5.0 mi Calm Calm - N/A   Overcast
5:40 AM 66.2 °F 66.2 °F 100% 29.72 in 4.0 mi Calm Calm - N/A   Overcast
5:56 AM 65.8 °F 65.8 °F 100% 29.72 in 3.0 mi West 4.6 mph - N/A   Overcast
6:56 AM 66.9 °F 66.9 °F 100% 29.73 in 3.0 mi West 6.9 mph - N/A   Overcast
7:56 AM 68.9 °F 66.9 °F 93% 29.75 in 4.0 mi West 4.6 mph - N/A   Mostly Cloudy
8:56 AM 70.0 °F 65.8 °F 87% 29.77 in 7.0 mi SW 4.6 mph - N/A   Overcast
9:56 AM 72.9 °F 66.9 °F 82% 29.76 in 8.0 mi West 8.1 mph - N/A   Mostly Cloudy
10:56 AM 73.9 °F 65.8 °F 76% 29.77 in 10.0 mi WNW 5.8 mph - N/A   Mostly Cloudy
11:56 AM 73.9 °F 66.9 °F 79% 29.78 in 10.0 mi WSW 5.8 mph - 0.00 in Rain Light Rain
12:56 PM 74.8 °F 64.9 °F 71% 29.76 in 10.0 mi Variable 3.5 mph - 0.00 in   Mostly Cloudy
1:56 PM 77.9 °F 68.9 °F 74% 29.75 in 10.0 mi NE 5.8 mph - N/A   Mostly Cloudy
2:56 PM 72.9 °F 66.9 °F 82% 29.76 in 10.0 mi NNW 9.2 mph - 0.00 in Thunderstorm Mostly Cloudy
3:56 PM 72.0 °F 65.8 °F 81% 29.78 in 10.0 mi NNW 8.1 mph - N/A Thunderstorm Mostly Cloudy
4:56 PM 72.9 °F 66.9 °F 82% 29.77 in 5.0 mi NNE 6.9 mph - N/A   Haze
5:56 PM 72.9 °F 66.9 °F 82% 29.77 in 7.0 mi North 8.1 mph - N/A   Smoke
6:56 PM 72.0 °F 65.8 °F 81% 29.78 in 10.0 mi North 4.6 mph - N/A   Clear
7:56 PM 70.0 °F 66.9 °F 90% 29.79 in 10.0 mi NNW 5.8 mph - N/A   Clear
8:56 PM 68.9 °F 66.9 °F 93% 29.79 in 10.0 mi NNW 5.8 mph - N/A   Clear
9:56 PM 68.9 °F 65.8 °F 90% 29.81 in 10.0 mi North 4.6 mph - N/A   Clear
10:56 PM 68.9 °F 66.9 °F 93% 29.82 in 10.0 mi Calm Calm - N/A   Partly Cloudy
11:56 PM 68.0 °F 66.9 °F 96% 29.81 in 10.0 mi Calm Calm - N/A   Scattered Clouds